Location: White Mills Observatory
(37.5374°N, 86.0303°W)
Time: 02:51:41
(UTC-05:00)

Amateur Radio Satellites - All Passes

Search period start: 30 January 2015 02:21
Search period end: 31 January 2015 02:21
Location: White Mills Observatory, 37.5374°N, 86.0303°W

Satellite Date Start Highest point End Downlink Frequencies (MHz)
Time Altitude Azimuth
ITAMSAT 1 30 Jan 02:27:10 02:31:49 33° 96° (E) 02:36:33 435.822/435.867
SWISSCUBE 30 Jan 02:37:56 02:41:13 18° 268° (W) 02:44:22 437.505
STARS 30 Jan 02:52:28 02:56:55 82° 76° (ENE) 03:01:24 437.465
BEESAT 30 Jan 02:54:40 02:57:03 13° 270° (W) 02:59:10 436.000
ITUPSAT 1 30 Jan 02:59:29 03:01:28 12° 271° (W) 03:03:11 437.325
ISS 30 Jan 02:59:38 03:00:35 11° 17° (NNE) 03:01:36 145.825
KKS-1 30 Jan 03:00:38 03:05:01 52° 261° (W) 03:09:25 437.445
O/OREOS (USA 219) 30 Jan 03:08:07 03:12:35 51° 253° (WSW) 03:17:01 437.305
HORYU 2 30 Jan 03:08:55 03:11:24 15° 91° (E) 03:14:06 437.375
M-CUBED/EXP-1 PRIME 30 Jan 03:09:35 03:13:41 89° 248° (WSW) 03:17:28 437.505
AIST 2 30 Jan 03:15:19 03:19:32 80° 121° (ESE) 03:23:51 435.215
BEESAT 2 30 Jan 03:16:01 03:19:55 40° 306° (NW) 03:23:52 435.950
DANDE 30 Jan 03:23:39 03:29:05 21° 83° (E) 03:35:09 436.750
Gurwin Techsat 1B 30 Jan 03:28:06 03:33:27 89° 94° (E) 03:38:47 435.225
AO-7 30 Jan 03:28:35 03:33:30 18° 90° (E) 03:38:55 29.400- 29.500
BEESAT 3 30 Jan 03:29:54 03:33:24 26° 309° (NW) 03:36:55 437.485
RS-15 30 Jan 03:42:18 03:49:55 24° 104° (ESE) 03:58:06 29.354- 29.394
AUBIESAT-1 30 Jan 03:42:30 03:46:18 38° 256° (WSW) 03:49:49 437.475
CUSAT 1 30 Jan 03:46:41 03:53:48 36° 89° (E) 04:01:17 437.405
Oscar 19 30 Jan 03:50:28 03:53:13 14° 296° (WNW) 03:55:43 437.125/150
ITAMSAT 1 30 Jan 04:06:49 04:11:15 28° 292° (WNW) 04:15:34 435.822/435.867
GONETS M04 30 Jan 04:07:02 04:12:36 17° 298° (WNW) 04:17:38
ISS 30 Jan 04:34:33 04:37:45 45° 36° (NE) 04:40:56 145.825
PCSat 30 Jan 04:35:23 04:40:46 72° 115° (ESE) 04:46:12 145.827
JAS-2 30 Jan 04:38:47 04:43:42 28° 96° (E) 04:49:15 435.910
HORYU 2 30 Jan 04:44:08 04:48:22 43° 288° (WNW) 04:52:32 437.375
MOZHAYETS 4 30 Jan 04:45:07 04:49:42 75° 77° (ENE) 04:54:17
AIST 2 30 Jan 04:56:59 04:58:48 12° 318° (NW) 05:00:27 435.215
DANDE 30 Jan 05:03:30 05:11:41 84° 279° (W) 05:20:26 436.750
Gurwin Techsat 1B 30 Jan 05:11:06 05:12:46 11° 298° (WNW) 05:14:07 435.225
AO-7 30 Jan 05:19:01 05:27:24 85° 288° (WNW) 05:35:41 29.400- 29.500
CUSAT 1 30 Jan 05:28:40 05:36:38 51° 285° (WNW) 05:44:45 437.405
STRAND 1 30 Jan 05:32:25 05:34:58 14° 64° (ENE) 05:37:46 437.568
RS-15 30 Jan 05:50:16 06:01:13 80° 302° (WNW) 06:12:17 29.354- 29.394
ISS 30 Jan 06:11:52 06:14:00 16° 230° (SW) 06:16:03 145.825
YUBILEINY 30 Jan 06:16:06 06:23:31 31° 70° (ENE) 06:31:10 435.215
Cubesat XI-IV 30 Jan 06:16:30 06:20:58 27° 95° (E) 06:25:32 437.490
PRISM 30 Jan 06:20:32 06:24:39 87° 71° (ENE) 06:28:47 437.425
PCSat 30 Jan 06:21:14 06:24:50 17° 314° (NW) 06:28:15 145.827
JAS-2 30 Jan 06:23:33 06:28:54 40° 288° (WNW) 06:34:46 435.910
CUTE-I 30 Jan 06:35:49 06:40:52 41° 98° (E) 06:45:56 437.470
CUBESAT XI-V 30 Jan 06:40:04 06:44:40 89° 243° (WSW) 06:49:18 437.345
DANDE 30 Jan 06:50:48 06:56:34 19° 299° (WNW) 07:01:58 436.750
STRAND 1 30 Jan 07:08:38 07:13:42 65° 259° (W) 07:18:47 437.568
AO-7 30 Jan 07:13:48 07:19:10 18° 306° (NW) 07:24:09 29.400- 29.500
VERMONT LUNAR 30 Jan 07:16:28 07:17:54 12° 144° (SE) 07:19:25 437.305
Cubesat XI-IV 30 Jan 07:56:16 08:01:08 35° 290° (WNW) 08:05:57 437.490
RS-15 30 Jan 08:07:01 08:15:45 25° 329° (NNW) 08:24:19 29.354- 29.394
HO-68 30 Jan 08:10:00 08:13:34 15° 88° (E) 08:17:36 435.675
YUBILEINY 30 Jan 08:12:19 08:20:48 54° 269° (W) 08:29:14 435.215
GOMX 1 30 Jan 08:14:12 08:14:36 10° 85° (E) 08:15:25 467.674
CUTE-I 30 Jan 08:16:27 08:20:44 24° 293° (WNW) 08:24:53 437.470
PHONESAT 2.4 30 Jan 08:19:43 08:22:29 21° 148° (SSE) 08:25:20 2401.200-2431.200
BRITE-PL 30 Jan 08:20:53 08:24:54 20° 90° (E) 08:28:57 437.365/2234.400
SEEDS 30 Jan 08:39:34 08:41:26 13° 90° (E) 08:43:30 437.485
VERMONT LUNAR 30 Jan 08:52:10 08:55:35 60° 157° (SSE) 08:59:02 437.305
COMPASS 1 30 Jan 09:03:37 09:06:44 21° 94° (E) 09:09:56 437.405
CANX-2 30 Jan 09:20:17 09:24:25 54° 99° (E) 09:28:32 2200.000
AAUSAT CUBESAT 2 30 Jan 09:28:35 09:32:23 35° 97° (E) 09:36:13 437.432
CINEMA 3 30 Jan 09:35:09 09:39:11 27° 94° (E) 09:43:07 145.822/145.860
POLYITAN 1 30 Jan 09:38:19 09:38:53 10° 65° (ENE) 09:39:42 437.675
UWE-3 30 Jan 09:42:31 09:44:49 14° 90° (E) 09:47:19 435.000/436.395/437.385
CUTE 1.7 + AOD 2 30 Jan 09:44:13 09:48:29 85° 279° (W) 09:52:40 437.475
GOMX 1 30 Jan 09:48:09 09:53:37 84° 281° (W) 09:58:43 467.674
Oscar 11 30 Jan 09:49:41 09:53:27 30° 96° (E) 09:57:15 145.826/435.025
UNISAT 6 30 Jan 09:50:38 09:54:33 27° 70° (ENE) 09:58:32 437.425
HO-68 30 Jan 09:55:03 10:02:15 85° 286° (WNW) 10:09:26 435.675
DOVE 4 30 Jan 09:55:27 10:00:40 84° 101° (ESE) 10:05:34 437.250
POPSAT HIP 1 30 Jan 09:55:34 09:58:11 16° 68° (ENE) 10:00:58 437.405
PHONESAT 2.4 30 Jan 09:57:11 10:00:47 89° 169° (S) 10:04:26 2401.200-2431.200
DUCHIFAT 1 30 Jan 09:57:30 10:00:11 17° 68° (ENE) 10:03:02 145.980
BRITE-PL 30 Jan 09:58:16 10:03:44 49° 287° (WNW) 10:08:55 437.365/2234.400
SEEDS 30 Jan 10:13:34 10:17:35 44° 286° (WNW) 10:21:33 437.485
BEESAT 3 30 Jan 10:14:20 10:15:49 12° 42° (NE) 10:17:27 437.485
SO-50 30 Jan 10:22:32 10:26:58 58° 117° (ESE) 10:31:35 436.795
UKube-1 30 Jan 10:25:25 10:29:33 41° 98° (E) 10:33:41 .
ANTELSAT 30 Jan 10:25:51 10:30:31 65° 75° (ENE) 10:35:11 437.575/2403.000
RS-15 30 Jan 10:28:00 10:33:48 15° 4° (N) 10:39:48 29.354- 29.394
VERMONT LUNAR 30 Jan 10:30:20 10:33:45 53° 353° (N) 10:37:12 437.305
NANOSAT C BR1 30 Jan 10:30:54 10:34:52 40° 73° (ENE) 10:38:55 145.865
TIGRISAT 30 Jan 10:32:54 10:37:36 76° 76° (ENE) 10:42:19 435.000
HUMSAT D 30 Jan 10:37:12 10:40:42 26° 95° (E) 10:44:13 437.325/437.525
COMPASS 1 30 Jan 10:38:54 10:42:29 27° 289° (WNW) 10:45:59 437.405
CUBEBUG 2 30 Jan 10:39:33 10:44:07 80° 101° (E) 10:48:30 437.445
ZACube-1 30 Jan 10:42:20 10:46:42 58° 100° (E) 10:50:55 437.345
QB50P2 30 Jan 10:45:36 10:49:50 62° 75° (ENE) 10:54:05 145.880/145.840
DX 1 30 Jan 10:47:22 10:51:47 79° 103° (ESE) 10:56:10 434.975-435.025
DELFI C3 30 Jan 10:52:49 10:56:47 56° 285° (WNW) 11:00:43 145.870
FUNcube-1 30 Jan 10:53:52 10:58:18 79° 102° (ESE) 11:02:35 145.935
QB50P1 30 Jan 10:54:29 10:58:45 78° 76° (ENE) 11:03:03 145.935-145.965
CANX-2 30 Jan 10:58:15 10:59:58 12° 294° (WNW) 11:01:28 2200.000
BUGSAT 1 30 Jan 11:00:32 11:04:35 69° 77° (ENE) 11:08:44 437.445
AAUSAT CUBESAT 2 30 Jan 11:05:06 11:07:49 17° 291° (WNW) 11:10:23 437.432
POLYITAN 1 30 Jan 11:10:03 11:14:19 67° 259° (WSW) 11:18:39 437.675
CINEMA 3 30 Jan 11:12:15 11:16:21 27° 291° (WNW) 11:20:12 145.822/145.860
AISAT 30 Jan 11:17:12 11:21:42 62° 101° (E) 11:26:09 437.250
UWE-3 30 Jan 11:17:26 11:21:44 45° 287° (WNW) 11:25:51 435.000/436.395/437.385
ESTCUBE 1 30 Jan 11:23:57 11:27:56 30° 96° (E) 11:31:58 437.505/2401.250
Oscar 11 30 Jan 11:26:12 11:29:30 21° 291° (WNW) 11:32:41 145.826/435.025
UNISAT 6 30 Jan 11:27:12 11:31:17 28° 265° (W) 11:35:18 437.425
AIST 1 30 Jan 11:27:46 11:31:48 44° 93° (E) 11:35:53
POPSAT HIP 1 30 Jan 11:29:47 11:33:49 39° 262° (W) 11:37:52 437.405
GOMX 1 30 Jan 11:29:54 11:30:53 10° 299° (WNW) 11:31:31 467.674
DUCHIFAT 1 30 Jan 11:31:49 11:35:48 38° 262° (W) 11:39:48 145.980
PHONESAT 2.4 30 Jan 11:36:00 11:39:32 51° 359° (N) 11:43:06 2401.200-2431.200
DOVE 4 30 Jan 11:36:02 11:37:42 11° 298° (WNW) 11:39:03 437.250
BEESAT 2 30 Jan 11:37:26 11:41:35 66° 58° (ENE) 11:45:41 435.950
50 SAT 30 Jan 11:38:04 11:42:07 77° 283° (WNW) 11:46:06 437.505
AIST 2 30 Jan 11:39:26 11:43:12 29° 51° (NE) 11:46:56 435.215
VELOX 1 30 Jan 11:44:52 11:49:21 66° 285° (WNW) 11:53:47 145.980
HO-68 30 Jan 11:45:02 11:49:06 16° 303° (WNW) 11:52:48 435.675
CUBEBUG 1 30 Jan 11:49:44 11:54:07 55° 100° (E) 11:58:30 437.445
BEESAT 3 30 Jan 11:50:23 11:54:33 76° 240° (WSW) 11:58:37 437.485
UKube-1 30 Jan 12:02:37 12:05:26 17° 293° (WNW) 12:08:06 .
SO-50 30 Jan 12:04:49 12:07:58 17° 316° (NW) 12:11:04 436.795
TISAT 1 30 Jan 12:04:49 12:07:38 18° 92° (E) 12:10:36 437.305
ANTELSAT 30 Jan 12:06:10 12:07:50 11° 271° (W) 12:09:11 437.575/2403.000
NANOSAT C BR1 30 Jan 12:08:24 12:11:00 15° 269° (W) 12:13:26 145.865
VERMONT LUNAR 30 Jan 12:08:39 12:12:07 61° 10° (N) 12:15:36 437.305
HUMSAT D 30 Jan 12:13:03 12:16:26 23° 290° (WNW) 12:19:41 437.325/437.525
GONETS M04 30 Jan 12:18:35 12:26:36 41° 74° (ENE) 12:34:43
ZACube-1 30 Jan 12:20:49 12:22:36 12° 295° (WNW) 12:24:09 437.345
RS-15 30 Jan 12:41:48 12:51:24 32° 38° (NE) 13:01:36 29.354- 29.394
AISAT 30 Jan 12:55:57 12:57:51 12° 295° (WNW) 12:59:32 437.250
ESTCUBE 1 30 Jan 13:01:05 13:04:42 23° 291° (WNW) 13:08:12 437.505/2401.250
SWISSCUBE 30 Jan 13:02:58 13:04:52 13° 90° (E) 13:07:03 437.505
SPROUT 30 Jan 13:06:25 13:10:47 84° 283° (WNW) 13:15:07 437.525
AIST 1 30 Jan 13:07:44 13:09:49 13° 290° (WNW) 13:11:41
Gurwin Techsat 1B 30 Jan 13:10:37 13:13:07 14° 63° (ENE) 13:15:54 435.225
PHONESAT 2.4 30 Jan 13:14:40 13:18:19 80° 16° (NNE) 13:21:58 2401.200-2431.200
BEESAT 30 Jan 13:17:36 13:20:36 17° 92° (E) 13:23:48 436.000
AIST 2 30 Jan 13:18:13 13:21:43 24° 248° (WSW) 13:25:05 435.215
ITUPSAT 1 30 Jan 13:22:04 13:25:20 19° 92° (E) 13:28:46 437.325
Oscar 19 30 Jan 13:23:59 13:29:10 79° 77° (ENE) 13:34:24 437.125/150
PCSat 30 Jan 13:25:27 13:30:29 38° 55° (NE) 13:35:32 145.827
CUBEBUG 1 30 Jan 13:27:54 13:30:05 13° 294° (WNW) 13:32:02 437.445
TISAT 1 30 Jan 13:39:41 13:43:37 35° 288° (WNW) 13:47:30 437.305
ITAMSAT 1 30 Jan 13:43:15 13:48:02 41° 71° (ENE) 13:52:56 435.822/435.867
VERMONT LUNAR 30 Jan 13:46:51 13:50:12 42° 206° (SSW) 13:53:32 437.305
HORYU 2 30 Jan 14:06:45 14:08:30 12° 65° (ENE) 14:10:30 437.375
GONETS M04 30 Jan 14:15:30 14:23:26 40° 272° (W) 14:31:13
AO-7 30 Jan 14:25:39 14:31:42 24° 57° (ENE) 14:38:02 29.400- 29.500
CUSAT 1 30 Jan 14:33:04 14:36:27 16° 60° (ENE) 14:39:34 437.405
SWISSCUBE 30 Jan 14:38:29 14:43:13 60° 286° (WNW) 14:47:56 437.505
STARS 30 Jan 14:45:38 14:48:33 18° 92° (E) 14:51:37 437.465
Gurwin Techsat 1B 30 Jan 14:47:16 14:52:33 72° 257° (WSW) 14:57:53 435.225
PHONESAT 2.4 30 Jan 14:53:34 14:56:42 27° 211° (SSW) 14:59:49 2401.200-2431.200
RS-15 30 Jan 14:53:49 15:05:18 83° 241° (WSW) 15:17:16 29.354- 29.394
KKS-1 30 Jan 14:54:01 14:58:06 34° 97° (E) 15:02:12 437.445
BEESAT 30 Jan 14:54:11 14:58:45 44° 287° (WNW) 15:03:15 436.000
ITUPSAT 1 30 Jan 14:58:56 15:03:27 41° 288° (WNW) 15:07:55 437.325
Oscar 19 30 Jan 15:08:01 15:09:15 10° 273° (W) 15:10:04 437.125/150
PCSat 30 Jan 15:09:12 15:13:46 27° 251° (WSW) 15:18:13 145.827
ITAMSAT 1 30 Jan 15:23:48 15:27:46 21° 267° (W) 15:31:36 435.822/435.867
AUBIESAT-1 30 Jan 15:27:13 15:28:31 12° 98° (E) 15:30:00 437.475
O/OREOS (USA 219) 30 Jan 15:40:05 15:43:31 22° 103° (ESE) 15:47:05 437.305
HORYU 2 30 Jan 15:40:17 15:44:44 60° 259° (WSW) 15:49:12 437.375
DANDE 30 Jan 15:52:24 15:58:50 77° 80° (E) 16:03:29 436.750
CUSAT 1 30 Jan 16:14:42 16:20:23 51° 267° (W) 16:24:34 437.405
AO-7 30 Jan 16:15:24 16:23:46 77° 255° (WSW) 16:32:11 29.400- 29.500
STARS 30 Jan 16:21:05 16:25:14 37° 288° (WNW) 16:29:17 437.465
M-CUBED/EXP-1 PRIME 30 Jan 16:28:14 16:31:34 78° 289° (WNW) 16:35:03 437.505
KKS-1 30 Jan 16:31:12 16:34:34 20° 292° (WNW) 16:37:47 437.445
JAS-2 30 Jan 16:34:01 16:39:31 70° 75° (ENE) 16:44:43 435.910
MOZHAYETS 4 30 Jan 16:43:11 16:46:32 20° 93° (E) 16:50:00
AUBIESAT-1 30 Jan 17:00:36 17:03:36 30° 291° (WNW) 17:06:40 437.475
RS-15 30 Jan 17:09:06 17:16:28 18° 258° (WSW) 17:23:06 29.354- 29.394
O/OREOS (USA 219) 30 Jan 17:18:49 17:22:48 30° 298° (WNW) 17:26:47 437.305
Cubesat XI-IV 30 Jan 17:36:37 17:41:26 37° 70° (ENE) 17:46:20 437.490
DANDE 30 Jan 17:39:27 17:40:53 11° 282° (WNW) 17:41:52 436.750
JUGNU 30 Jan 17:49:47 17:52:03 12° 173° (S) 17:54:21 437.505
CUTE-I 30 Jan 17:55:46 18:00:56 55° 73° (ENE) 18:06:10 437.470
PRISM 30 Jan 18:06:54 18:09:01 14° 92° (E) 18:11:20 437.425
AO-7 30 Jan 18:14:30 18:18:04 12° 274° (W) 18:20:54 29.400- 29.500
MOZHAYETS 4 30 Jan 18:19:45 18:23:53 34° 288° (WNW) 18:27:58
JAS-2 30 Jan 18:23:12 18:25:15 12° 271° (W) 18:26:53 435.910
SRMSAT 30 Jan 18:34:26 18:35:07 10° 169° (S) 18:35:53 437.500
CUBESAT XI-V 30 Jan 18:39:18 18:43:14 27° 95° (E) 18:47:14 437.345
SO-50 30 Jan 18:55:55 19:00:23 33° 51° (NE) 19:04:52 436.795
YUBILEINY 30 Jan 19:14:44 19:22:21 37° 87° (E) 19:30:10 435.215
Cubesat XI-IV 30 Jan 19:17:16 19:21:39 25° 266° (W) 19:25:57 437.490
STRAND 1 30 Jan 19:21:10 19:26:10 50° 99° (E) 19:31:10 437.568
GOMX 1 30 Jan 19:21:11 19:21:21 10° 61° (ENE) 19:21:52 467.674
BRITE-PL 30 Jan 19:29:59 19:33:25 19° 65° (ENE) 19:37:11 437.365/2234.400
JUGNU 30 Jan 19:37:33 19:40:15 13° 183° (S) 19:42:56 437.505
CUTE-I 30 Jan 19:38:02 19:41:27 16° 269° (W) 19:44:38 437.470
PRISM 30 Jan 19:40:52 19:44:48 41° 287° (WNW) 19:48:42 437.425
COMPASS 1 30 Jan 19:54:56 19:56:38 13° 67° (ENE) 19:58:33 437.405
CANX-2 30 Jan 20:11:41 20:15:26 31° 72° (ENE) 20:19:14 2200.000
CUBESAT XI-V 30 Jan 20:16:39 20:20:39 28° 290° (WNW) 20:24:36 437.345
AAUSAT CUBESAT 2 30 Jan 20:18:34 20:21:38 20° 70° (ENE) 20:24:47 437.432
SRMSAT 30 Jan 20:20:35 20:23:28 14° 179° (S) 20:26:22 437.500
HO-68 30 Jan 20:21:04 20:28:02 60° 70° (ENE) 20:35:03 435.675
CINEMA 3 30 Jan 20:35:00 20:38:45 23° 68° (ENE) 20:42:43 145.822/145.860
CUTE 1.7 + AOD 2 30 Jan 20:35:08 20:39:18 52° 75° (ENE) 20:43:30 437.475
SO-50 30 Jan 20:36:38 20:40:52 29° 247° (WSW) 20:45:02 436.795
UWE-3 30 Jan 20:39:14 20:40:35 11° 65° (ENE) 20:42:13 435.000/436.395/437.385
Oscar 11 30 Jan 20:43:21 20:46:24 20° 69° (ENE) 20:49:35 145.826/435.025
GOMX 1 30 Jan 20:53:34 20:58:37 83° 79° (E) 21:04:03 467.674
DOVE 4 30 Jan 20:58:23 21:03:23 68° 75° (ENE) 21:08:39 437.250
STRAND 1 30 Jan 21:01:27 21:05:02 19° 294° (WNW) 21:08:27 437.568
SEEDS 30 Jan 21:03:27 21:07:43 84° 258° (WSW) 21:11:59 437.485
BRITE-PL 30 Jan 21:06:33 21:11:28 52° 262° (W) 21:16:46 437.365/2234.400
YUBILEINY 30 Jan 21:10:52 21:19:05 44° 286° (WNW) 21:27:14 435.215
ISS 30 Jan 21:13:00 21:16:04 39° 135° (SE) 21:19:10 145.825
UKube-1 30 Jan 21:18:57 21:22:36 28° 70° (ENE) 21:26:21 .
COMPASS 1 30 Jan 21:27:52 21:31:59 51° 261° (W) 21:36:07 437.405
HUMSAT D 30 Jan 21:28:21 21:30:59 16° 68° (ENE) 21:33:46 437.325/437.525
CUBEBUG 2 30 Jan 21:35:23 21:40:00 54° 75° (ENE) 21:44:42 437.445
ZACube-1 30 Jan 21:36:17 21:40:31 38° 72° (ENE) 21:44:48 437.345
DELFI C3 30 Jan 21:38:51 21:42:54 67° 76° (ENE) 21:46:58 145.870
DX 1 30 Jan 21:41:05 21:45:18 52° 74° (ENE) 21:49:34 434.975-435.025
FUNcube-1 30 Jan 21:47:28 21:51:53 49° 74° (ENE) 21:56:21 145.935
CANX-2 30 Jan 21:48:13 21:51:27 20° 267° (W) 21:54:35 2200.000
AAUSAT CUBESAT 2 30 Jan 21:53:24 21:57:09 29° 264° (W) 22:00:49 437.432
SRMSAT 30 Jan 22:09:57 22:11:50 11° 189° (S) 22:13:37 437.500
HO-68 30 Jan 22:10:37 22:16:15 24° 267° (W) 22:21:38 435.675
CINEMA 3 30 Jan 22:11:08 22:15:44 38° 264° (W) 22:20:25 145.822/145.860
UWE-3 30 Jan 22:11:56 22:16:36 73° 260° (W) 22:21:20 435.000/436.395/437.385
AISAT 30 Jan 22:13:27 22:17:38 43° 73° (ENE) 22:21:55 437.250
CUTE 1.7 + AOD 2 30 Jan 22:13:59 22:15:38 12° 271° (W) 22:17:02 437.475
Oscar 11 30 Jan 22:18:26 22:22:24 33° 263° (W) 22:26:20 145.826/435.025
ANTELSAT 30 Jan 22:21:50 22:24:16 15° 90° (E) 22:26:52 437.575/2403.000
ESTCUBE 1 30 Jan 22:22:23 22:25:51 23° 69° (ENE) 22:29:26 437.505/2401.250
50 SAT 30 Jan 22:23:23 22:27:21 49° 74° (ENE) 22:31:22 437.505
TIGRISAT 30 Jan 22:28:15 22:31:06 17° 92° (E) 22:34:04 435.000
QB50P2 30 Jan 22:35:21 22:36:54 12° 90° (E) 22:38:42 145.880/145.840
GOMX 1 30 Jan 22:36:55 22:37:38 10° 275° (W) 22:37:56 467.674
DOVE 4 30 Jan 22:39:22 22:41:47 13° 273° (W) 22:43:55 437.250
VELOX 1 30 Jan 22:40:34 22:45:00 87° 72° (ENE) 22:49:28 145.980
QB50P1 30 Jan 22:43:21 22:45:45 15° 91° (E) 22:48:19 145.935-145.965
CUBEBUG 1 30 Jan 22:44:20 22:48:16 36° 72° (ENE) 22:52:18 437.445
BUGSAT 1 30 Jan 22:46:58 22:48:37 12° 90° (E) 22:50:31 437.445
ISS 30 Jan 22:49:59 22:52:40 22° 331° (NNW) 22:55:20 145.825
UKube-1 30 Jan 22:55:19 22:58:47 23° 265° (W) 23:02:11 .
TISAT 1 30 Jan 22:57:27 22:58:35 11° 65° (ENE) 22:59:57 437.305
POLYITAN 1 30 Jan 22:58:29 23:01:54 23° 94° (E) 23:05:21 437.675
HUMSAT D 30 Jan 23:02:21 23:06:29 41° 262° (W) 23:10:37 437.325/437.525
ZACube-1 30 Jan 23:13:41 23:17:02 19° 268° (W) 23:20:16 437.345
AIST 1 30 Jan 23:14:10 23:18:30 64° 265° (W) 23:22:50
CUBEBUG 2 30 Jan 23:14:27 23:17:06 14° 271° (W) 23:19:32 437.445
POPSAT HIP 1 30 Jan 23:17:09 23:21:09 37° 97° (E) 23:25:08 437.405
DUCHIFAT 1 30 Jan 23:18:46 23:22:47 38° 98° (E) 23:26:47 145.980
DX 1 30 Jan 23:20:06 23:21:57 12° 270° (W) 23:23:34 434.975-435.025
UNISAT 6 30 Jan 23:20:50 23:25:16 74° 102° (ESE) 23:29:35 437.425
FUNcube-1 30 Jan 23:25:55 23:28:34 15° 270° (W) 23:31:00 145.935
AISAT 30 Jan 23:51:49 23:54:33 15° 269° (W) 23:57:06 437.250
NANOSAT C BR1 30 Jan 23:53:34 23:57:52 80° 284° (WNW) 00:02:08 145.865
ANTELSAT 30 Jan 23:57:11 00:01:23 42° 287° (WNW) 00:05:27 437.575/2403.000
SPROUT 30 Jan 23:58:36 00:02:49 57° 75° (ENE) 00:07:06 437.525
ESTCUBE 1 30 Jan 23:58:41 00:02:38 30° 264° (W) 00:06:33 437.505/2401.250
50 SAT 31 Jan 00:01:12 00:02:49 12° 270° (W) 00:04:12 437.505
TIGRISAT 31 Jan 00:03:59 00:08:04 36° 288° (WNW) 00:12:01 435.000
SWISSCUBE 31 Jan 00:08:32 00:10:27 13° 64° (ENE) 00:12:38 437.505
QB50P2 31 Jan 00:09:00 00:13:12 51° 286° (WNW) 00:17:21 145.880/145.840
QB50P1 31 Jan 00:17:49 00:21:54 41° 287° (WNW) 00:25:54 145.935-145.965
BUGSAT 1 31 Jan 00:20:19 00:24:29 50° 286° (WNW) 00:28:38 437.445
CUBEBUG 1 31 Jan 00:21:49 00:24:50 18° 268° (W) 00:27:43 437.445
BEESAT 31 Jan 00:22:55 00:25:49 17° 66° (ENE) 00:28:53 436.000
ITUPSAT 1 31 Jan 00:27:39 00:30:47 18° 67° (ENE) 00:34:06 437.325
TISAT 1 31 Jan 00:29:46 00:33:57 60° 259° (W) 00:38:11 437.305
POLYITAN 1 31 Jan 00:34:09 00:37:50 27° 289° (WNW) 00:41:25 437.675
POPSAT HIP 1 31 Jan 00:53:52 00:56:49 18° 292° (WNW) 00:59:35 437.405
DUCHIFAT 1 31 Jan 00:55:32 00:58:23 17° 292° (WNW) 01:01:04 145.980
GONETS M04 31 Jan 01:16:50 01:25:08 51° 90° (E) 01:33:28
BEESAT 2 31 Jan 01:31:23 01:34:23 20° 112° (ESE) 01:37:32 435.950
Oscar 19 31 Jan 01:38:01 01:42:34 32° 96° (E) 01:47:10 437.125/150
SPROUT 31 Jan 01:38:13 01:39:23 11° 271° (W) 01:40:16 437.525
STARS 31 Jan 01:42:04 01:44:08 13° 66° (ENE) 01:46:25 437.465
BEESAT 3 31 Jan 01:42:57 01:46:34 31° 114° (ESE) 01:50:17 437.485
SWISSCUBE 31 Jan 01:43:08 01:47:51 65° 259° (W) 01:52:36 437.505
KKS-1 31 Jan 01:50:46 01:54:25 26° 70° (ENE) 01:58:10 437.445
O/OREOS (USA 219) 31 Jan 01:51:04 01:55:13 32° 63° (ENE) 01:59:22 437.305
BEESAT 31 Jan 01:58:44 02:03:20 48° 261° (W) 02:07:57 436.000
ITAMSAT 1 31 Jan 01:59:04 02:02:21 17° 91° (E) 02:05:52 435.822/435.867
ITUPSAT 1 31 Jan 02:03:52 02:08:25 43° 262° (W) 02:12:57 437.325
AUBIESAT-1 31 Jan 02:14:15 02:16:30 15° 66° (ENE) 02:18:48 437.475
